Temp
45 39 35 43 42 41 40 37 38 41 45 43 44 46 51 53 49 48 48 48 48 47 46 48 49 49 48 48 49 49 48 47 46 44 43 42 42 43 44 45 48 48 49 49
40 36 45 47 45 42 40 38 39 43 45 42 42 45 52 51 49 48 48 47 46 45 45 46 46 46 47 47 47 47 48 46 46 45 42 42 42 43 44 46 47 48 49 48
37 42 47 46 40 40 39 38 39 39 42 41 41 43 46 47 47 47 47 47 46 46 45 44 45 45 45 46 46 47 47 46 45 44 43 43 43 43 44 44 45 46 48 48
41 45 43 40 42 42 36 44 45 42 39 35 37 33 42 42 44 45 44 44 44 46 45 45 44 44 45 45 45 46 46 46 45 44 43 43 42 42 43 43 44 45 47 47
37 40 40 39 41 46 40 44 43 40 35 33 34 33 41 41 43 46 45 45 45 45 46 45 45 46 45 44 44 44 44 44 44 43 43 42 41 42 43 43 44 44 45 47
39 42 42 43 41 46 43 41 38 34 33 21 34 35 37 42 45 43 45 46 46 45 45 45 45 46 44 43 43 43 43 43 43 43 42 42 42 42 42 42 42 43 44 45
35 37 40 43 40 41 40 36 20 20 16 23 32 30 37 42 44 45 48 47 46 45 44 44 43 43 42 42 42 43 43 43 42 42 42 42 42 42 43 43 42 42 42 43
29 25 38 42 40 38 35 37 27 23 20 25 31 29 39 41 43 45 46 48 45 44 44 44 44 43 42 43 42 42 42 42 42 41 42 42 43 42 42 43 42 42 42 43
28 32 37 39 41 43 37 33 38 26 17 23 30 35 43 42 41 43 43 45 44 44 44 44 44 43 43 42 42 42 42 42 42 42 41 41 42 42 42 43 42 42 43 45
37 28 32 36 40 40 37 41 31 26 18 20 25 30 36 38 41 42 43 44 44 44 44 44 43 42 43 43 42 42 42 42 42 42 41 42 42 42 43 43 43 43 44 45
38 35 29 34 32 33 33 31 34 35 30 24 19 30 40 42 42 42 42 44 42 44 44 44 43 44 44 43 42 41 41 41 41 41 41 41 41 42 42 42 43 43 45 45
40 34 26 29 35 38 36 37 37 31 24 25 26 31 41 42 42 43 43 44 42 42 42 43 44 43 42 42 41 41 41 41 41 41 41 41 41 42 42 42 43 44 45 45
42 32 25 27 33 35 32 34 36 35 32 25 28 30 39 39 40 42 42 41 41 41 41 41 41 41 41 41 40 40 40 40 41 41 41 40 40 41 42 43 44 44 44 45
46 32 33 31 31 34 26 31 35 36 30 30 30 29 34 36 38 40 40 39 39 39 40 40 39 39 39 40 40 40 41 41 40 40 40 40 40 41 42 43 43 44 44 44
42 32 34 28 31 33 33 35 36 33 38 36 35 31 38 40 39 38 40 39 38 32 34 37 37 37 37 38 39 40 40 40 40 40 40 40 41 41 42 42 42 43 44 45
38 27 31 30 29 30 29 35 36 36 35 34 26 28 40 46 40 39 40 39 39 38 36 34 35 34 35 31 37 39 38 39 40 39 39 40 41 41 40 41 42 42 43 46
37 30 29 26 27 29 26 30 33 36 34 40 35 41 40 38 42 40 39 40 39 39 38 37 36 35 34 35 36 36 37 39 38 39 38 39 39 40 40 40 41 42 43 46
36 31 31 23 26 21 33 35 41 39 40 40 39 41 43 43 43 40 40 39 39 38 38 37 37 36 35 35 34 36 37 38 37 38 38 38 38 38 38 39 40 41 44 45
42 33 25 23 23 29 33 32 33 34 37 42 44 41 37 37 38 36 39 39 39 38 38 37 37 36 35 34 35 36 35 36 36 37 37 38 38 38 38 38 39 41 42 43
39 38 31 21 22 22 33 37 40 42 31 42 47 41 38 42 37 36 38 38 37 37 37 36 36 35 35 34 35 34 33 34 34 35 36 37 38 39 38 38 37 39 41 39
29 30 27 23 21 25 35 35 41 29 36 40 47 43 42 44 43 39 38 37 37 36 35 35 34 32 32 33 33 32 32 31 32 33 35 35 36 37 39 39 37 38 38 37
28 27 27 22 18 21 35 34 37 41 38 41 46 43 44 38 39 38 38 36 35 35 34 33 32 30 30 32 33 31 29 30 30 31 32 31 33 35 36 36 36 35 36 36
25 32 28 33 32 36 40 37 41 41 40 38 40 42 40 38 37 37 35 34 34 33 32 32 30 29 26 26 29 29 29 31 31 32 32 32 32 33 33 34 34 34 34 34
28 32 30 32 36 35 37 38 40 40 39 37 39 40 40 38 38 36 35 33 32 31 30 26 26 25 24 23 27 30 31 32 33 32 32 33 32 33 33 33 33 34 34 33
28 33 26 27 31 34 36 38 40 37 37 37 39 41 40 39 37 36 33 32 32 31 26 23 21 22 20 19 20 26 30 33 32 33 33 32 32 33 33 32 33 33 34 35
29 35 35 34 36 38 41 39 38 37 36 38 37 35 37 39 36 35 33 32 31 28 23 22 21 21 19 18 18 18 28 31 28 31 32 33 33 33 33 33 33 37 37 37
MSLP
1014.86 1015.46 1014.94 1014.12 1014.31 1014.15 1014.18 1014.11 1013.66 1013.06 1012.83 1012.98 1012.81 1012.28 1011.35 1010.67 1011.14 1011.15 1011.27 1011.45 1011.79 1012.26 1012.69 1012.97 1013.31 1013.71 1014.38 1015.20 1015.81 1016.48 1017.14 1017.68 1018.05 1018.53 1018.91 1019.05 1019.22 1019.14 1019.09 1018.83 1018.75 1018.61 1018.42 1018.14
1015.50 1014.79 1014.55 1014.61 1014.76 1014.63 1014.45 1014.27 1013.81 1013.29 1013.10 1013.17 1012.73 1011.75 1010.75 1010.39 1010.56 1010.97 1011.07 1011.27 1012.02 1012.79 1013.36 1013.84 1014.16 1014.38 1014.71 1015.41 1016.03 1016.68 1017.19 1017.63 1017.89 1018.08 1018.58 1018.91 1019.02 1018.95 1019.00 1018.86 1018.71 1018.61 1018.65 1018.11
1014.79 1013.90 1013.65 1014.46 1014.78 1014.97 1014.62 1014.44 1014.03 1013.82 1013.57 1013.51 1013.31 1011.72 1010.46 1010.13 1010.32 1010.78 1011.30 1011.69 1012.29 1012.94 1013.73 1014.24 1014.79 1015.18 1015.42 1015.85 1016.30 1016.75 1017.17 1017.56 1017.86 1018.11 1018.40 1018.77 1018.98 1019.09 1018.95 1019.08 1018.90 1018.77 1018.59 1018.29
1014.68 1013.72 1013.84 1014.18 1014.38 1014.65 1014.64 1014.00 1014.24 1014.51 1014.67 1014.86 1014.16 1013.08 1010.97 1010.26 1010.34 1010.91 1011.50 1012.22 1012.81 1013.45 1013.98 1014.42 1014.91 1015.45 1015.88 1016.22 1016.60 1016.81 1017.14 1017.55 1017.85 1018.20 1018.41 1018.63 1018.98 1019.38 1019.05 1019.02 1018.94 1018.69 1018.44 1018.39
1013.37 1013.46 1013.69 1013.83 1013.37 1013.96 1014.22 1014.25 1014.87 1015.38 1015.85 1015.76 1015.07 1014.64 1011.16 1010.61 1010.32 1010.71 1011.43 1012.22 1012.87 1013.55 1014.01 1014.58 1014.93 1015.32 1016.00 1016.43 1016.74 1017.02 1017.31 1017.57 1017.88 1018.27 1018.48 1018.69 1018.93 1019.16 1019.19 1019.11 1019.19 1018.97 1018.44 1018.21
1013.63 1013.32 1013.26 1012.97 1013.29 1013.32 1014.29 1015.00 1016.12 1016.93 1017.39 1017.10 1015.30 1014.62 1012.05 1010.74 1009.98 1010.35 1011.11 1012.05 1012.78 1013.58 1014.09 1014.68 1015.01 1015.46 1016.00 1016.49 1016.94 1017.32 1017.58 1017.94 1018.12 1018.45 1018.60 1018.75 1018.81 1019.00 1019.30 1019.35 1019.41 1019.24 1018.87 1018.33
1013.94 1013.59 1013.27 1013.11 1013.60 1013.99 1014.14 1015.32 1017.55 1018.57 1018.87 1017.34 1015.99 1015.28 1011.70 1010.40 1009.96 1010.27 1010.91 1011.81 1012.70 1013.51 1014.18 1014.73 1015.22 1015.60 1016.08 1016.52 1016.91 1017.26 1017.62 1018.01 1018.33 1018.63 1018.70 1018.76 1018.74 1018.90 1019.14 1019.27 1019.52 1019.55 1019.14 1018.72
1013.54 1014.04 1013.07 1012.74 1012.82 1012.97 1014.07 1014.36 1015.78 1017.29 1018.47 1017.41 1016.42 1014.58 1011.26 1010.40 1010.21 1010.36 1010.85 1011.57 1012.56 1013.43 1014.04 1014.60 1015.15 1015.58 1016.04 1016.48 1016.78 1017.14 1017.43 1017.89 1018.20 1018.60 1018.79 1018.68 1018.65 1018.88 1019.07 1019.01 1019.23 1019.35 1019.14 1018.82
1012.65 1013.02 1012.98 1012.88 1012.68 1012.76 1014.02 1014.41 1014.51 1016.05 1018.40 1017.29 1015.53 1013.39 1011.18 1010.74 1010.74 1010.78 1011.26 1012.06 1012.70 1013.35 1013.91 1014.33 1015.03 1015.48 1015.92 1016.39 1016.59 1016.95 1017.32 1017.71 1017.96 1018.18 1018.50 1018.73 1018.64 1018.77 1018.86 1019.10 1019.13 1019.24 1019.19 1018.80
1010.96 1012.56 1013.34 1013.38 1013.13 1013.01 1012.87 1013.32 1014.53 1015.53 1016.85 1016.66 1014.96 1013.71 1011.44 1011.13 1011.13 1011.22 1011.61 1012.12 1012.67 1013.18 1013.79 1014.20 1014.71 1015.03 1015.59 1015.99 1016.35 1016.87 1017.15 1017.40 1017.72 1017.94 1018.22 1018.46 1018.47 1018.63 1018.83 1018.90 1019.04 1019.15 1019.04 1018.92
1010.40 1011.42 1013.86 1013.72 1012.99 1012.49 1013.42 1013.21 1013.29 1013.65 1014.40 1014.58 1014.57 1012.17 1010.20 1010.30 1010.77 1011.27 1011.76 1012.18 1012.57 1013.05 1013.58 1014.23 1014.57 1014.68 1015.08 1015.71 1016.22 1016.56 1016.84 1017.16 1017.45 1017.76 1018.03 1018.28 1018.31 1018.43 1018.67 1018.95 1018.87 1018.95 1018.93 1018.83
1009.38 1011.82 1013.19 1013.11 1013.10 1012.98 1012.58 1012.14 1012.14 1012.56 1013.93 1014.07 1013.49 1011.45 1010.31 1010.31 1010.75 1011.34 1012.01 1012.54 1012.92 1013.18 1013.65 1014.12 1014.35 1014.75 1014.96 1015.52 1016.02 1016.39 1016.58 1016.84 1017.18 1017.34 1017.81 1018.06 1018.12 1018.33 1018.41 1018.80 1018.80 1018.96 1018.87 1018.69
1008.34 1010.92 1012.37 1013.21 1013.43 1012.95 1012.74 1012.10 1011.62 1011.76 1012.27 1012.90 1013.05 1011.49 1010.93 1011.04 1011.48 1011.83 1012.28 1012.83 1013.20 1013.46 1013.80 1014.26 1014.43 1014.83 1015.01 1015.42 1015.73 1016.12 1016.47 1016.53 1016.87 1017.18 1017.55 1017.86 1017.98 1018.15 1018.29 1018.53 1018.67 1018.81 1018.76 1018.76
1007.65 1009.10 1009.99 1010.71 1010.78 1011.09 1012.22 1011.48 1011.52 1011.22 1011.56 1011.34 1011.13 1011.27 1011.53 1011.63 1011.78 1012.27 1012.66 1012.99 1013.54 1013.98 1014.25 1014.58 1014.86 1015.11 1015.14 1015.31 1015.50 1015.69 1015.87 1016.14 1016.54 1016.90 1017.23 1017.42 1017.72 1017.82 1018.13 1018.24 1018.52 1018.62 1018.68 1018.71
1007.66 1008.24 1009.34 1010.53 1010.81 1010.83 1010.36 1010.20 1010.67 1010.70 1009.91 1010.28 1010.00 1010.56 1010.50 1010.71 1011.15 1011.93 1012.47 1013.23 1013.87 1014.34 1014.70 1014.85 1015.27 1015.32 1015.40 1015.42 1015.58 1015.56 1015.56 1015.87 1016.14 1016.62 1017.00 1017.22 1017.33 1017.53 1017.87 1018.05 1018.28 1018.53 1018.57 1018.58
1007.07 1008.20 1008.77 1010.27 1010.86 1010.80 1010.54 1009.81 1009.54 1009.06 1009.45 1009.56 1009.53 1009.63 1009.10 1009.87 1011.16 1012.03 1012.47 1013.23 1013.92 1014.39 1014.81 1015.07 1015.34 1015.54 1015.74 1015.73 1015.82 1015.69 1015.55 1015.59 1015.94 1016.27 1016.51 1016.91 1017.26 1017.46 1017.74 1017.93 1018.15 1018.49 1018.63 1018.34
1006.98 1008.03 1009.24 1010.44 1010.87 1010.89 1010.39 1007.91 1008.50 1008.54 1008.21 1008.15 1008.39 1008.39 1009.03 1010.04 1010.70 1011.23 1012.11 1012.91 1013.67 1014.23 1014.67 1015.04 1015.43 1015.74 1015.91 1015.96 1015.93 1015.74 1015.52 1015.59 1015.85 1016.13 1016.46 1016.73 1017.04 1017.48 1017.68 1017.88 1018.15 1018.29 1018.38 1018.40
1005.46 1007.60 1008.88 1010.55 1010.57 1010.03 1006.96 1006.48 1006.16 1006.70 1006.75 1007.09 1007.24 1007.58 1008.09 1008.56 1009.76 1010.88 1011.72 1012.61 1013.55 1014.23 1014.75 1015.19 1015.49 1015.75 1015.84 1015.85 1015.67 1015.46 1015.30 1015.42 1015.74 1016.22 1016.59 1016.86 1017.12 1017.45 1017.69 1017.91 1018.20 1018.36 1018.12 1018.25
1004.96 1006.53 1008.85 1009.98 1009.59 1008.72 1006.67 1006.40 1006.12 1006.00 1005.67 1005.65 1006.38 1007.27 1008.27 1009.07 1010.19 1011.72 1012.05 1012.65 1013.43 1014.23 1014.89 1015.35 1015.68 1015.87 1016.02 1015.99 1015.80 1015.61 1015.56 1015.65 1015.92 1016.27 1016.48 1016.73 1016.95 1017.19 1017.44 1017.82 1018.13 1018.31 1018.52 1018.26
1005.48 1005.85 1006.82 1009.40 1009.01 1007.97 1004.95 1004.59 1004.72 1004.92 1004.64 1003.80 1005.04 1006.54 1007.79 1008.62 1010.17 1011.08 1012.09 1012.82 1013.86 1014.51 1015.09 1015.64 1016.03 1016.22 1016.24 1016.32 1016.17 1016.16 1016.41 1016.43 1016.68 1016.71 1016.74 1016.76 1016.83 1017.13 1017.38 1017.50 1017.78 1017.81 1018.33 1018.39
1005.50 1006.06 1006.44 1007.84 1008.04 1006.12 1004.36 1004.25 1004.43 1004.86 1003.03 1002.77 1003.81 1005.35 1006.83 1007.51 1007.97 1009.96 1011.90 1013.11 1013.95 1014.72 1015.44 1016.04 1016.46 1016.73 1016.90 1016.74 1016.70 1016.91 1017.07 1017.26 1017.16 1016.91 1016.81 1016.91 1017.09 1017.32 1017.47 1017.70 1017.90 1017.87 1018.09 1018.20
1004.13 1005.10 1006.13 1007.09 1006.75 1005.15 1003.48 1004.35 1003.23 1002.07 1002.24 1002.80 1003.92 1004.47 1005.90 1007.63 1008.79 1010.29 1012.07 1013.37 1014.44 1015.25 1015.98 1016.59 1017.10 1017.49 1017.59 1017.44 1017.34 1017.64 1017.69 1017.98 1017.64 1017.32 1017.28 1017.45 1017.36 1017.40 1017.48 1017.62 1017.91 1017.98 1018.33 1018.04
1003.44 1002.70 1003.61 1004.20 1003.33 1002.37 1002.74 1001.95 1001.82 1001.95 1002.24 1003.38 1003.96 1005.10 1006.13 1007.71 1009.27 1010.74 1012.50 1013.97 1015.10 1015.87 1016.59 1017.23 1017.46 1017.90 1018.18 1018.12 1017.99 1018.15 1018.58 1018.30 1018.08 1017.93 1018.01 1017.82 1017.78 1017.75 1017.77 1017.83 1018.04 1018.27 1018.24 1018.45
1002.37 1002.02 1002.77 1003.53 1002.69 1002.40 1002.42 1002.05 1002.14 1002.44 1002.82 1003.66 1004.21 1005.30 1006.39 1007.96 1009.61 1011.33 1012.79 1014.38 1015.56 1016.56 1017.26 1017.77 1018.12 1018.55 1018.88 1018.90 1018.69 1018.71 1018.80 1018.56 1018.47 1018.48 1018.40 1018.28 1018.14 1018.01 1017.97 1018.01 1018.10 1018.21 1018.10 1018.31
1001.36 1001.67 1002.29 1002.67 1002.61 1002.52 1002.55 1002.40 1002.66 1003.09 1003.45 1004.28 1005.49 1005.98 1006.87 1008.18 1010.23 1011.39 1013.35 1014.77 1015.82 1016.84 1017.82 1018.37 1018.77 1019.23 1019.66 1019.62 1019.62 1019.50 1019.04 1018.79 1018.87 1018.86 1018.75 1018.56 1018.50 1018.37 1018.29 1018.23 1018.23 1018.12 1017.94 1017.80
1000.66 1000.22 1000.82 1000.56 1000.49 1000.99 1001.44 1002.41 1002.92 1003.65 1004.27 1005.10 1006.04 1007.56 1008.46 1008.66 1010.33 1011.95 1013.90 1015.38 1016.40 1017.38 1018.38 1019.19 1019.79 1019.95 1020.40 1020.43 1020.25 1020.04 1019.68 1019.42 1019.33 1019.24 1019.20 1019.13 1018.87 1018.59 1018.46 1018.36 1018.21 1017.96 1017.81 1017.80
Wind_Speed
2 4 10 19 4 2 3 3 4 3 1 1 6 10 14 12 6 10 10 8 7 2 3 5 6 8 10 8 10 9 9 6 5 2 3 2 2 0 1 1 1 1 2 4
3 10 10 5 5 4 2 0 4 3 1 2 5 15 11 8 4 4 7 2 6 5 5 6 6 6 5 9 8 8 7 7 4 3 2 2 2 2 1 1 1 2 3 4
8 4 10 8 4 7 5 5 4 3 2 1 6 9 4 1 2 3 6 4 4 7 8 6 6 6 7 8 8 8 7 7 4 5 4 3 2 2 1 1 1 2 3 3
6 4 6 5 9 8 5 8 6 2 3 5 2 7 6 1 2 2 3 4 5 6 5 5 6 6 7 6 6 7 7 7 5 6 3 4 3 2 2 2 1 1 2 4
10 8 6 5 7 9 6 5 6 3 3 2 2 2 10 3 4 5 6 6 6 6 7 7 8 7 5 6 6 6 6 6 5 5 4 4 2 1 1 0 1 1 2 3
5 0 3 7 2 7 9 7 8 5 3 3 7 7 7 5 5 3 3 5 7 7 6 6 5 6 6 5 6 6 6 4 5 4 4 5 5 4 2 0 1 1 2 2
1 3 1 3 7 3 4 7 3 4 4 7 3 1 10 3 3 2 6 7 7 7 7 7 8 7 6 7 7 6 6 5 4 4 4 4 5 5 5 3 2 2 1 1
10 5 9 6 7 10 6 7 8 9 6 4 3 8 9 4 1 1 1 6 6 7 6 7 7 7 7 7 7 7 7 5 5 5 4 4 4 3 3 3 2 3 2 1
7 6 2 1 2 6 7 6 5 9 2 4 5 7 8 3 2 2 3 5 6 7 7 8 7 7 7 7 8 8 7 5 6 6 5 4 4 4 4 3 2 2 2 1
6 3 1 0 1 1 3 7 4 3 5 4 4 5 7 6 8 5 5 6 5 5 6 6 7 8 6 6 6 6 7 7 7 6 5 4 5 4 3 3 4 4 2 1
5 3 1 3 8 9 4 3 3 5 5 7 3 8 6 8 9 9 7 5 3 6 6 6 6 6 7 5 6 7 7 7 6 6 5 6 5 5 4 4 4 4 3 2
6 5 5 6 4 3 2 6 6 6 6 2 3 8 3 6 8 8 7 6 4 5 3 5 6 6 6 7 7 7 6 7 6 6 5 6 5 4 5 4 4 4 4 2
17 6 5 4 5 1 5 5 3 4 4 8 8 7 4 5 7 5 8 6 4 5 4 3 3 4 5 5 6 6 6 7 6 6 6 6 6 5 5 5 4 4 3 4
20 5 6 9 3 10 7 7 7 4 5 6 8 5 5 7 8 7 7 6 6 4 4 3 3 2 1 3 5 6 7 7 7 6 6 6 6 6 5 5 5 5 4 4
15 11 14 4 2 3 6 16 16 13 12 13 9 10 11 16 14 10 8 7 7 3 3 3 1 1 2 2 3 4 6 6 6 7 6 7 6 5 5 5 5 4 4 3
5 3 4 9 2 2 3 10 19 22 12 7 4 5 5 8 8 7 8 9 8 6 5 3 3 3 3 3 4 4 4 6 6 7 7 6 5 5 5 5 5 4 5 4
9 6 4 3 4 6 6 20 15 16 8 15 17 10 7 6 13 12 9 8 8 7 5 5 3 2 1 3 4 5 4 2 5 6 5 6 6 5 5 5 5 5 5 4
16 7 3 3 5 6 5 3 17 21 17 14 4 8 14 10 8 8 5 8 8 7 6 5 3 2 2 3 2 4 2 3 5 5 5 5 5 5 4 4 5 4 4 5
12 8 5 6 4 5 5 6 10 15 17 18 18 8 6 10 7 4 4 5 7 7 5 4 3 3 3 5 4 4 5 5 5 5 5 5 5 5 5 5 5 3 3 3
12 6 6 4 6 9 7 5 7 4 6 15 23 15 16 13 10 6 8 8 8 8 6 6 5 3 5 6 5 6 6 6 5 3 1 3 5 5 5 5 5 3 2 3
8 5 8 6 5 9 7 7 8 7 9 9 22 19 21 13 3 12 13 7 7 7 8 6 6 5 4 4 5 7 6 6 4 2 1 2 3 4 4 3 2 3 4 2
10 8 6 4 2 9 8 7 16 7 3 7 13 16 19 10 16 19 14 13 12 11 8 6 6 6 5 5 5 6 8 5 5 4 5 4 3 1 2 4 2 2 3 3
4 9 10 12 10 2 12 2 4 2 6 6 11 11 15 19 16 18 16 13 10 10 7 5 6 7 5 5 5 8 3 5 5 6 5 4 3 3 2 2 4 1 2 2
1 4 5 6 7 4 9 2 4 2 4 7 8 17 19 20 20 18 14 13 10 7 7 4 5 6 6 5 7 8 6 6 6 7 6 5 4 3 2 1 0 1 3 2
6 10 8 1 1 3 3 4 7 6 9 12 10 17 19 22 18 19 15 12 10 8 4 4 5 5 5 4 5 4 6 6 6 6 6 5 4 4 3 2 2 2 3 2
6 13 11 10 10 4 10 8 7 9 10 16 17 11 10 20 19 17 14 10 10 9 4 4 4 5 3 3 5 6 6 6 3 5 5 4 4 3 3 4 5 5 7 7
Wind_Direction
184 149 203 206 164 104 145 196 226 226 166 241 238 268 279 280 233 276 274 262 245 180 28 91 96 106 105 102 119 130 135 143 131 115 107 93 146 200 290 278 22 330 354 37
101 229 212 165 184 240 29 186 256 279 253 200 323 288 261 268 247 281 290 249 147 122 99 90 98 100 104 131 129 131 140 153 157 119 136 139 163 187 217 270 305 326 340 35
180 216 172 168 156 179 219 194 215 215 347 292 329 293 330 50 99 27 35 85 107 146 137 127 122 123 123 139 148 149 156 159 153 126 112 78 55 39 29 313 322 322 332 15
250 223 140 166 204 153 222 199 176 197 88 231 28 276 301 326 266 46 81 102 132 133 124 137 140 139 154 159 146 145 152 157 149 146 131 146 168 179 221 201 239 301 349 354
228 181 161 173 206 154 223 126 147 109 105 11 266 75 270 323 241 197 204 196 180 177 162 161 163 159 161 153 161 156 151 150 142 149 152 142 158 208 253 47 274 318 338 7
223 257 199 193 104 156 155 83 51 57 70 339 218 161 273 203 208 158 171 193 188 180 176 163 162 143 144 152 153 155 153 158 151 154 165 174 174 173 189 243 268 294 311 355
143 211 258 159 92 56 105 99 19 358 10 223 16 149 247 236 205 194 188 195 184 175 171 167 168 171 164 171 171 164 161 171 171 171 181 186 193 182 198 193 235 253 305 348
167 238 167 182 191 171 184 161 157 193 193 224 113 225 250 210 275 137 333 164 154 171 179 183 187 182 179 179 173 175 173 179 176 181 205 197 193 183 206 193 201 233 233 260
154 237 342 73 151 148 185 198 150 105 43 66 212 281 290 183 158 137 143 137 169 183 189 189 184 191 185 184 190 186 182 190 187 188 193 206 196 180 200 221 215 241 249 240
199 118 315 348 160 6 160 158 95 348 135 230 270 275 240 215 203 172 165 190 198 192 189 189 192 195 195 194 193 186 191 197 198 188 194 200 202 190 196 193 231 247 247 249
120 93 302 151 215 170 153 191 192 129 155 165 170 252 216 205 180 176 175 160 155 189 190 204 205 201 192 193 195 200 194 198 198 189 191 197 206 190 189 206 236 242 248 227
127 98 176 202 292 319 303 207 174 149 229 236 153 264 327 199 165 152 161 151 123 112 127 199 199 201 192 201 203 207 202 198 205 191 188 202 202 190 184 215 232 256 257 247
160 186 128 92 336 105 228 209 198 110 89 197 149 251 11 106 135 161 153 154 138 118 101 85 116 182 200 209 209 212 212 209 204 182 183 196 205 196 198 212 219 243 246 273
159 119 196 208 198 142 204 193 201 168 173 163 219 153 212 189 176 184 169 154 142 121 104 93 83 69 25 225 218 212 214 202 197 191 189 190 200 202 205 204 216 221 225 253
176 187 188 176 209 225 216 192 192 205 208 196 192 182 202 196 192 186 168 147 141 142 112 103 110 6 341 338 301 254 233 205 186 186 189 204 201 194 198 195 212 219 220 235
175 155 146 188 95 12 257 222 202 209 202 238 111 247 207 180 117 164 167 159 162 149 139 132 81 36 338 304 299 302 276 227 183 188 199 178 190 189 199 197 198 216 239 231
153 132 133 195 140 123 278 225 204 215 203 199 210 195 154 155 181 182 167 165 154 146 132 104 84 86 322 303 300 291 285 257 194 187 184 177 177 194 201 197 189 204 226 230
159 137 96 136 137 204 245 313 202 207 210 203 119 166 180 185 159 124 148 149 149 147 135 120 103 64 20 336 316 294 275 188 171 174 175 179 178 193 199 184 207 222 218 225
168 130 127 158 188 301 249 193 162 173 227 204 202 156 122 119 82 44 146 131 141 137 125 108 78 52 26 18 353 61 66 100 130 162 174 182 182 187 181 197 207 219 249 233
166 137 116 162 157 198 228 201 153 152 270 194 193 162 152 152 158 200 156 129 119 114 115 116 93 66 56 18 47 76 63 68 55 28 267 201 179 178 192 195 200 166 237 231
162 193 159 159 205 274 239 151 147 134 238 171 176 167 163 178 171 127 136 114 121 123 118 100 81 80 56 43 64 68 61 45 345 343 77 129 166 184 191 199 164 188 206 161
158 154 164 105 140 264 154 108 173 195 78 144 170 167 163 119 127 134 134 131 132 127 117 104 100 74 37 39 71 72 56 354 2 35 66 54 42 127 172 163 186 161 237 165
135 178 169 184 206 86 193 31 210 130 137 161 143 156 138 134 136 139 137 135 133 128 124 112 109 95 42 30 47 78 28 20 38 55 53 40 37 34 9 157 166 161 156 200
72 139 146 109 212 213 198 90 137 125 120 126 131 143 143 138 138 134 132 133 131 131 125 115 105 86 67 29 61 68 50 44 53 61 53 40 29 13 9 344 110 186 168 164
190 141 147 243 288 90 201 194 155 113 106 102 120 144 142 135 140 136 136 137 137 131 103 88 98 100 76 26 45 45 43 41 48 47 37 33 23 9 338 313 277 218 248 185
194 171 178 206 168 159 182 168 136 133 137 137 131 120 136 138 137 136 131 133 133 125 102 97 78 91 72 59 46 27 32 40 37 44 21 7 4 3 350 329 312 280 254 252